Wind_Speed
16 16 14 13 12 12 12 12 11 10 10 10 10 10 10 10 10 10 11 12 12 13 13 13 13 13 13 14 14 14 15 14 15 15 16 17 17 18 18 18 18 19 20
14 14 14 14 12 11 11 11 10 10 9 10 10 10 10 10 11 11 11 12 12 12 12 12 12 13 14 14 14 14 14 15 16 15 16 17 18 18 18 19 19 20 20
15 14 14 13 12 11 10 10 10 10 10 10 10 10 10 10 11 11 11 11 11 11 12 12 12 12 14 14 13 14 14 14 14 15 16 17 18 18 19 18 19 20 20
15 14 14 15 14 12 10 9 9 9 10 10 10 9 9 10 11 12 12 11 11 10 11 12 12 12 12 13 13 13 14 14 13 14 15 16 16 17 18 19 19 20 21
14 14 14 15 12 11 11 10 9 9 10 10 9 9 10 10 11 12 12 12 11 10 10 11 11 11 11 12 13 13 14 14 14 14 14 15 16 17 18 18 19 20 20
13 13 13 12 10 11 11 10 10 10 10 10 10 10 10 11 11 11 12 12 11 11 10 11 11 11 12 13 13 14 14 14 14 15 15 16 17 18 18 19 19 20 20
12 12 11 11 10 10 10 10 10 10 10 10 10 10 10 11 11 11 12 12 11 11 10 10 10 11 12 12 13 14 14 14 15 16 17 17 17 18 18 18 18 19 20
11 11 11 10 10 10 10 10 10 10 10 10 10 10 11 11 11 11 11 11 11 10 10 10 11 11 12 13 13 14 15 15 15 16 16 16 16 17 17 17 18 19 19
10 10 10 10 10 11 11 11 11 11 12 11 10 10 10 11 11 11 11 11 11 11 11 11 12 12 13 13 13 14 14 15 15 15 15 15 15 15 15 16 16 17 17
10 9 10 10 11 12 12 12 12 12 12 12 12 12 11 11 11 12 12 12 11 11 11 11 12 12 12 13 13 14 14 15 15 14 15 15 14 14 15 16 17 17 18
11 10 10 10 12 13 13 13 12 12 12 12 12 12 12 12 12 12 12 12 12 12 12 12 13 13 13 13 13 13 13 14 15 14 14 14 14 14 15 16 17 18 18
11 11 11 12 12 12 12 11 11 12 12 12 12 12 12 12 12 13 13 13 12 12 12 12 13 14 14 14 14 14 14 15 15 15 15 15 14 14 14 15 17 17 17
12 12 12 12 12 12 12 12 11 11 12 12 12 12 12 13 13 14 14 13 14 13 13 13 14 15 15 15 14 14 14 15 15 16 16 15 15 15 15 16 17 17 18
13 13 13 12 12 12 12 12 12 12 12 12 13 13 13 13 14 14 14 14 15 15 14 15 15 15 15 15 14 15 15 15 16 17 17 16 16 16 17 17 18 18 19
13 13 13 12 12 12 12 12 13 13 13 13 14 14 14 14 14 14 15 15 15 16 15 16 16 15 15 15 15 15 15 16 17 17 17 17 17 18 19 19 20 20 20
14 13 13 13 13 13 14 14 14 15 15 14 14 14 15 15 15 14 14 15 16 16 16 16 16 15 15 16 16 17 17 17 18 18 19 19 19 19 20 20 21 21 21
14 14 14 14 14 14 15 15 16 16 16 15 15 15 16 16 16 16 16 16 17 16 16 15 16 16 16 17 17 18 18 19 19 20 20 19 20 20 21 21 21 21 21
14 15 15 16 15 16 16 16 16 17 16 16 16 16 16 16 17 17 17 18 17 17 16 17 17 17 17 17 18 18 19 20 20 21 20 20 21 22 22 22 21 21 20
16 16 16 16 16 17 17 17 17 17 17 17 16 17 17 16 17 17 17 18 18 18 18 18 18 18 18 18 18 19 19 20 20 20 20 21 21 21 22 22 21 21 21
17 17 16 16 16 16 17 18 18 17 17 17 17 17 17 17 17 18 18 18 19 18 19 19 19 19 19 19 19 19 20 20 21 21 21 21 21 21 21 21 21 21 20
18 17 18 18 17 17 17 17 17 17 17 17 17 18 18 19 19 19 19 19 20 20 19 19 19 20 20 20 20 20 20 20 20 21 21 22 22 22 22 21 21 21 21
19 19 18 18 18 18 18 18 18 18 18 19 19 19 20 20 20 20 20 21 21 21 20 20 20 20 21 21 22 22 22 21 21 21 22 22 22 22 22 22 22 21 21
19 19 18 18 18 19 19 19 19 19 19 20 20 20 20 20 20 20 21 21 21 20 20 21 21 21 22 22 22 22 22 22 22 22 23 23 23 23 22 22 22 21 21
19 18 19 19 19 19 20 20 19 19 19 20 20 20 20 21 21 21 22 21 21 21 21 22 21 21 22 22 22 22 22 22 22 23 23 23 23 22 22 22 22 22 22
19 19 19 20 20 21 20 20 19 20 20 20 20 21 21 21 22 22 22 21 21 21 21 22 22 22 22 22 21 21 21 21 22 23 23 23 23 23 23 23 23 23 22
19 19 19 20 21 20 20 20 20 20 20 20 21 21 21 21 22 22 22 21 21 22 22 22 23 22 22 22 21 21 22 23 23 23 23 23 23 24 23 23 23 23 23
Wind_Direction
306 305 308 309 305 307 309 305 303 305 301 296 296 294 294 295 296 294 294 292 288 285 285 283 281 280 282 281 278 279 276 276 275 274 270 268 268 270 271 269 265 265 264
301 302 305 309 306 302 303 304 299 297 300 297 294 295 296 297 299 296 292 290 289 288 287 286 287 286 285 284 280 282 280 280 277 273 272 273 272 274 273 270 266 265 265
296 295 300 306 302 297 298 301 301 297 297 296 295 294 295 297 298 298 291 289 292 290 288 288 292 285 285 286 286 283 285 286 281 275 275 275 272 272 273 272 269 268 268
293 293 294 301 297 289 289 294 295 293 295 293 289 291 294 295 294 292 293 291 294 293 291 291 290 288 289 292 293 290 289 292 291 285 280 276 276 275 273 272 271 268 267
287 291 297 297 291 286 287 292 293 291 291 291 288 288 293 294 292 292 294 292 291 292 293 292 293 291 293 294 294 295 293 293 293 291 285 281 279 277 274 271 271 271 269
285 289 296 294 285 287 288 287 289 292 292 291 288 288 292 295 294 294 295 295 291 290 294 297 294 292 292 294 295 296 297 296 295 292 287 283 281 280 276 273 272 271 270
288 290 292 288 287 287 287 286 292 296 293 290 286 288 290 292 295 296 296 296 291 291 294 297 297 296 296 299 299 298 300 298 297 293 289 286 283 282 278 275 273 271 271
284 288 289 288 286 284 286 290 294 295 296 298 290 285 287 291 293 298 299 298 294 295 295 297 298 298 297 300 301 303 302 301 300 295 291 289 284 283 281 277 275 273 272
285 288 289 293 288 286 288 292 290 291 293 296 292 286 289 292 293 300 302 304 304 298 295 292 295 298 297 300 304 307 304 303 302 297 294 291 288 285 282 279 279 278 275
286 287 285 282 283 286 288 289 288 287 290 291 291 293 294 298 298 302 304 304 305 301 297 293 294 298 298 302 305 304 305 304 303 298 295 294 290 285 282 281 280 281 280
285 287 291 294 292 288 284 285 288 288 287 286 286 288 289 289 292 296 299 299 299 298 295 295 295 296 298 302 305 304 305 308 309 307 302 299 289 285 285 284 285 283 281
280 282 289 293 293 294 290 290 290 291 290 289 287 286 285 285 285 289 293 294 295 297 298 297 296 295 295 297 299 302 305 308 309 310 308 304 301 296 291 292 290 287 286
277 280 289 292 292 292 292 294 291 292 291 291 290 290 289 287 285 286 290 291 290 290 292 295 298 296 296 295 296 301 304 307 309 309 307 304 303 302 299 297 296 292 290
280 285 291 291 291 289 286 289 284 288 289 290 291 291 291 291 287 286 288 292 291 291 291 295 300 301 299 296 295 299 302 305 306 305 303 301 301 300 300 298 296 295 293
279 284 286 284 286 284 282 287 287 288 289 291 292 292 289 290 292 290 292 295 296 297 297 298 299 299 297 296 295 296 299 302 304 305 304 301 300 300 300 299 297 294 292
276 280 282 282 283 283 281 285 287 285 286 288 288 288 288 290 292 292 293 292 294 295 295 296 297 297 295 295 294 294 297 301 303 304 304 301 298 300 301 300 298 296 292
276 276 278 279 278 279 281 285 285 287 286 288 286 284 285 286 287 288 289 293 294 294 294 295 297 297 296 295 295 297 297 298 299 301 302 300 299 299 300 301 301 300 296
276 276 276 277 277 278 280 283 286 289 290 287 286 285 285 284 284 286 288 292 293 293 293 294 297 296 296 297 296 297 297 297 298 301 300 300 300 298 298 298 299 299 297
273 275 277 276 276 278 280 282 285 287 288 287 287 287 285 284 285 286 289 292 291 291 292 293 295 297 298 297 296 297 298 299 299 299 300 300 301 300 300 298 297 296 297
275 276 276 276 277 279 279 279 281 282 284 284 285 287 287 286 286 286 287 289 289 289 290 292 293 294 295 296 296 296 298 299 299 300 301 302 302 301 301 300 298 296 296
273 274 275 275 275 276 278 279 280 282 282 284 285 287 288 288 286 285 287 290 289 289 290 291 291 292 293 294 295 295 296 298 298 300 300 301 301 300 299 299 299 297 296
272 273 272 271 272 273 276 278 279 280 282 284 286 286 287 286 286 286 287 291 291 290 289 289 290 290 291 293 293 294 294 295 296 297 299 299 299 298 298 298 299 298 298
272 271 269 270 271 273 275 277 278 279 281 282 283 284 285 285 285 286 288 290 289 290 289 289 289 289 291 293 293 291 291 293 294 296 298 299 299 298 297 298 298 298 297
272 272 273 272 273 274 275 277 278 279 279 280 281 283 284 284 285 286 287 288 287 289 291 290 290 290 291 293 292 292 292 292 293 296 298 298 298 297 297 297 297 298 297
271 272 270 271 272 274 275 277 278 279 279 280 281 281 282 283 285 286 286 286 287 287 289 291 291 292 293 293 292 292 293 293 294 296 297 298 299 298 297 296 297 298 297
273 275 275 274 274 276 276 277 278 279 281 282 283 283 283 283 285 286 286 286 287 287 288 291 292 293 293 292 292 291 293 294 295 294 296 298 298 297 297 297 296 296 296
Height
5848 5846 5845 5844 5841 5840 5839 5837 5836 5835 5835 5834 5834 5833 5832 5831 5829 5828 5827 5826 5825 5825 5825 5824 5824 5823 5823 5821 5820 5819 5818 5817 5817 5816 5816 5816 5816 5816 5816 5816 5816 5816 5816
5846 5844 5842 5840 5838 5837 5837 5835 5834 5833 5832 5832 5831 5830 5829 5828 5827 5826 5825 5823 5822 5821 5821 5820 5820 5819 5819 5817 5816 5815 5814 5813 5812 5812 5811 5811 5811 5810 5810 5810 5810 5810 5810
5842 5840 5839 5837 5836 5834 5833 5833 5831 5830 5830 5829 5828 5828 5827 5825 5824 5823 5822 5820 5819 5818 5817 5817 5816 5815 5814 5813 5812 5811 5810 5809 5808 5807 5807 5806 5805 5805 5805 5804 5804 5804 5804
5839 5837 5835 5834 5833 5831 5830 5829 5828 5828 5827 5826 5826 5825 5824 5823 5822 5820 5819 5818 5817 5815 5814 5813 5812 5811 5811 5809 5808 5807 5806 5805 5803 5802 5802 5801 5800 5800 5800 5799 5799 5798 5798
5835 5833 5832 5830 5829 5829 5828 5826 5825 5825 5824 5823 5823 5822 5821 5820 5819 5817 5816 5815 5814 5812 5811 5810 5809 5808 5807 5806 5805 5804 5803 5801 5799 5798 5797 5796 5795 5795 5794 5794 5793 5793 5792
5831 5829 5828 5827 5827 5826 5825 5824 5823 5822 5821 5820 5820 5819 5818 5817 5816 5815 5813 5812 5810 5809 5808 5807 5806 5805 5804 5803 5801 5800 5798 5797 5795 5794 5793 5792 5791 5790 5789 5788 5788 5787 5787
5827 5826 5825 5825 5824 5823 5822 5821 5820 5819 5818 5817 5816 5815 5815 5814 5813 5811 5810 5809 5808 5806 5805 5804 5803 5802 5801 5799 5798 5796 5794 5793 5791 5789 5788 5786 5785 5784 5784 5783 5782 5781 5781
5822 5822 5822 5821 5821 5820 5819 5818 5817 5816 5815 5814 5813 5813 5812 5811 5810 5809 5807 5806 5804 5803 5801 5801 5800 5799 5797 5796 5794 5793 5791 5789 5787 5785 5783 5781 5780 5779 5778 5777 5776 5776 5775
5819 5819 5818 5818 5817 5817 5816 5815 5813 5813 5812 5811 5811 5810 5809 5808 5807 5806 5804 5803 5801 5800 5798 5797 5796 5795 5794 5793 5791 5789 5787 5785 5783 5781 5779 5777 5776 5774 5773 5772 5771 5771 5770
5816 5815 5815 5814 5813 5812 5812 5811 5810 5809 5809 5808 5807 5806 5805 5805 5804 5802 5801 5800 5798 5797 5796 5794 5793 5792 5790 5789 5787 5786 5784 5782 5780 5777 5775 5773 5772 5770 5769 5768 5767 5766 5765
5813 5812 5811 5810 5809 5808 5808 5807 5806 5806 5805 5805 5804 5803 5802 5801 5800 5799 5798 5797 5795 5794 5793 5791 5790 5788 5787 5785 5784 5782 5780 5778 5776 5774 5771 5769 5768 5766 5764 5763 5762 5761 5760
5809 5809 5808 5807 5806 5805 5804 5803 5803 5802 5802 5801 5800 5799 5798 5797 5797 5796 5794 5793 5791 5790 5789 5787 5786 5784 5782 5781 5780 5778 5777 5775 5773 5770 5768 5766 5764 5762 5760 5759 5757 5756 5754
5805 5804 5803 5803 5802 5801 5801 5799 5799 5798 5798 5797 5796 5795 5794 5793 5793 5792 5790 5789 5788 5786 5785 5783 5782 5780 5778 5777 5776 5775 5773 5771 5769 5767 5764 5762 5760 5758 5757 5755 5753 5751 5749
5801 5800 5799 5798 5798 5798 5797 5795 5795 5794 5793 5793 5792 5791 5790 5789 5788 5787 5786 5784 5783 5781 5780 5779 5777 5776 5774 5773 5772 5771 5769 5767 5765 5762 5760 5758 5756 5754 5752 5750 5748 5746 5744
5797 5797 5796 5795 5794 5794 5793 5792 5791 5791 5789 5788 5787 5787 5786 5785 5784 5783 5782 5780 5779 5777 5776 5775 5773 5772 5770 5769 5767 5766 5764 5762 5760 5758 5756 5753 5751 5749 5747 5745 5743 5741 5739
5793 5792 5792 5791 5791 5790 5790 5788 5787 5787 5785 5784 5783 5782 5782 5781 5780 5779 5778 5776 5775 5773 5772 5770 5769 5767 5766 5764 5763 5761 5759 5758 5755 5753 5751 5749 5746 5744 5742 5739 5737 5735 5733
5788 5788 5787 5787 5787 5786 5786 5785 5783 5781 5779 5779 5779 5778 5777 5776 5775 5774 5773 5772 5770 5769 5767 5765 5764 5763 5761 5759 5758 5756 5754 5753 5750 5748 5746 5743 5741 5739 5736 5733 5731 5728 5726
5783 5783 5783 5782 5782 5782 5781 5780 5778 5777 5775 5774 5773 5772 5772 5771 5770 5769 5768 5767 5765 5764 5762 5761 5759 5758 5756 5754 5753 5751 5749 5747 5745 5743 5740 5738 5735 5733 5730 5728 5725 5723 5721
5778 5778 5777 5777 5776 5776 5775 5775 5773 5772 5771 5770 5769 5768 5767 5766 5765 5764 5763 5762 5760 5759 5758 5756 5754 5753 5751 5749 5748 5746 5744 5742 5739 5737 5734 5732 5729 5727 5724 5722 5719 5717 5715
5773 5772 5772 5772 5771 5771 5770 5769 5769 5768 5766 5765 5764 5763 5762 5762 5761 5759 5758 5757 5755 5754 5752 5751 5749 5748 5746 5744 5742 5740 5738 5736 5734 5731 5729 5726 5724 5721 5718 5716 5713 5711 5709
5767 5766 5766 5766 5766 5766 5765 5765 5764 5763 5762 5760 5759 5758 5757 5756 5755 5754 5752 5751 5749 5748 5747 5745 5744 5742 5740 5738 5736 5734 5732 5730 5728 5726 5723 5720 5718 5715 5713 5710 5708 5705 5703
5761 5760 5760 5760 5760 5760 5760 5759 5758 5757 5756 5755 5754 5753 5752 5750 5749 5748 5746 5745 5743 5742 5741 5739 5737 5736 5734 5732 5730 5728 5726 5724 5722 5720 5717 5715 5712 5709 5706 5704 5702 5699 5697
5754 5754 5754 5755 5754 5754 5754 5753 5752 5751 5750 5749 5748 5747 5745 5744 5743 5742 5740 5739 5737 5736 5734 5733 5731 5730 5728 5726 5724 5722 5720 5718 5715 5713 5711 5708 5706 5703 5700 5698 5695 5693 5690
5748 5748 5748 5748 5748 5747 5747 5747 5746 5745 5744 5743 5742 5741 5740 5738 5737 5735 5734 5733 5731 5730 5728 5726 5725 5723 5722 5719 5717 5715 5713 5711 5709 5706 5704 5701 5699 5696 5694 5691 5689 5686 5684
5742 5742 5742 5742 5741 5741 5740 5740 5739 5739 5738 5737 5736 5735 5733 5732 5730 5729 5727 5726 5725 5723 5722 5720 5718 5717 5715 5713 5710 5708 5706 5704 5702 5700 5698 5695 5692 5690 5688 5685 5683 5680 5678
5736 5736 5736 5735 5735 5735 5734 5734 5733 5732 5731 5730 5729 5728 5727 5725 5724 5722 5720 5719 5718 5717 5715 5713 5712 5710 5708 5706 5704 5702 5700 5698 5696 5694 5691 5689 5686 5683 5681 5678 5676 5673 5671